TimeCST,TemperatureF,Dew PointF,Humidity,Sea Level PressureIn,VisibilityMPH,Wind Direction,Wind SpeedMPH,Gust SpeedMPH,PrecipitationIn,Events,Conditions,WindDirDegrees,DateUTC
12:54 AM,42.1,34.0,73,29.74,10.0,West,9.2,-,N/A,,Clear,260,2012-12-04 06:54:00
1:54 AM,42.1,32.0,67,29.76,10.0,West,10.4,18.4,N/A,,Clear,270,2012-12-04 07:54:00
2:54 AM,41.0,30.9,67,29.77,10.0,West,8.1,19.6,N/A,,Clear,260,2012-12-04 08:54:00
3:54 AM,41.0,30.0,65,29.77,10.0,West,13.8,19.6,N/A,,Clear,270,2012-12-04 09:54:00
4:54 AM,39.0,28.9,67,29.78,10.0,West,10.4,-,N/A,,Clear,280,2012-12-04 10:54:00
6:54 AM,37.0,28.0,70,29.85,10.0,WSW,6.9,-,N/A,,Clear,250,2012-12-04 12:54:00
7:54 AM,36.0,27.0,70,29.88,10.0,West,6.9,-,N/A,,Clear,270,2012-12-04 13:54:00
8:54 AM,37.0,26.1,65,29.89,10.0,West,10.4,-,N/A,,Clear,270,2012-12-04 14:54:00
9:54 AM,37.0,23.0,57,29.91,10.0,WNW,17.3,24.2,N/A,,Clear,300,2012-12-04 15:54:00
10:54 AM,37.9,21.0,51,29.91,10.0,WNW,12.7,25.3,N/A,,Clear,290,2012-12-04 16:54:00
11:54 AM,37.9,21.0,51,29.92,10.0,WNW,16.1,25.3,N/A,,Clear,290,2012-12-04 17:54:00
12:54 PM,37.9,19.9,48,29.94,10.0,WNW,18.4,24.2,N/A,,Clear,290,2012-12-04 18:54:00
1:54 PM,35.1,15.1,44,29.97,10.0,WNW,18.4,28.8,N/A,,Clear,300,2012-12-04 19:54:00
2:54 PM,33.1,14.0,46,30.01,10.0,WNW,20.7,27.6,N/A,,Clear,300,2012-12-04 20:54:00
3:54 PM,30.0,8.1,40,30.06,10.0,NW,23.0,29.9,N/A,,Clear,310,2012-12-04 21:54:00
4:54 PM,27.0,9.0,47,30.12,10.0,NW,17.3,-,N/A,,Clear,320,2012-12-04 22:54:00
5:54 PM,25.0,10.9,55,30.16,10.0,NW,13.8,23.0,N/A,,Mostly Cloudy,310,2012-12-04 23:54:00
6:54 PM,25.0,12.9,60,30.20,10.0,NW,18.4,26.5,N/A,,Overcast,320,2012-12-05 00:54:00
7:54 PM,24.1,10.9,57,30.22,10.0,NW,25.3,32.2,N/A,,Overcast,320,2012-12-05 01:54:00
8:54 PM,24.1,12.9,62,30.23,10.0,WNW,10.4,20.7,N/A,,Overcast,300,2012-12-05 02:54:00
9:54 PM,24.1,14.0,65,30.25,10.0,WNW,12.7,-,N/A,,Overcast,290,2012-12-05 03:54:00
10:54 PM,24.1,15.1,69,30.27,10.0,NW,9.2,18.4,N/A,,Overcast,310,2012-12-05 04:54:00
11:54 PM,24.1,15.1,69,30.29,10.0,NW,11.5,-,N/A,,Overcast,310,2012-12-05 05:54:00